Regional Weather Roundup
Issued by NWS

Home | Current Version | Previous Version | Text Only | Print | Product List | Glossary Off
Versions: 1 2 3 4 5 6 7 8 9 10 11 12 13 14 15 16 17 18 19 20 21 22 23 24 25 26 27 28 29 30 31 32 33 34 35 36 37 38 39 40 41 42 43 44 45 46 47 48 49 50

000
ASUS45 KBOU 301107
RWRCO

WEATHER ROUNDUP FOR COLORADO
NATIONAL WEATHER SERVICE DENVER/BOULDER CO
400 AM MST FRI JAN 30 2015

NOTE: "FAIR" INDICATES FEW OR NO CLOUDS BELOW 12000 FEET WITH NO
SIGNIFICANT WEATHER AND/OR OBSTRUCTIONS TO VISIBILITY.

COZ001>005-013-030-031-301200-
...NORTHWEST COLORADO...

CITY           SKY/WX    TMP DP  RH WIND       PRES   REMARKS
CRAIG          CLOUDY    32  29  88 CALM      30.27F
HAYDEN         CLOUDY    32  27  80 E3        30.26S
MEEKER         CLOUDY    33  30  88 CALM      30.25F
MOUNT WERNER   NOT AVBL
STEAMBOAT SPGS CLOUDY    28  24  86 CALM      30.26F
WALDEN         CLOUDY    23  18  80 SE5       30.25F WCI  17
$$

COZ006>008-011-301200-
...WEST CENTRAL VALLEYS...

CITY           SKY/WX    TMP DP  RH WIND       PRES   REMARKS
GRAND JUNCTION CLOUDY    39  33  79 CALM      30.21F
MONTROSE       CLOUDY    38  29  70 CALM      30.24F
EAGLE          CLOUDY    32  28  86 CALM      30.30S
RIFLE          CLOUDY    35  29  78 E5        30.24F WCI  31
DELTA          CLOUDY    41  31  68 N6        30.23F
NUCLA          CLOUDY    37  36  93 CALM      30.26F
$$

COZ017>023-064>068-301200-
...SOUTHWEST COLORADO...

CITY           SKY/WX    TMP DP  RH WIND       PRES   REMARKS
DURANGO        CLOUDY    34  31  88 NE8       30.28F WCI  27
CORTEZ         CLOUDY    40  28  62 SW6       30.23F
PAGOSA SPRINGS LGT SNOW  31  31  99 CALM      30.31F
TELLURIDE      FLURRIES  32  32 100 CALM      30.25F
WOLF CREEK PAS NOT AVBL
$$

COZ009-010-012-014-032>034-037-058>063-301200-
...CENTRAL COLORADO...

CITY           SKY/WX    TMP DP  RH WIND       PRES   REMARKS
ASPEN          CLOUDY    25  20  81 S3        30.25F
BUENA VISTA    CLOUDY    29  24  82 NW3       30.31F
COPPER MTN     CLOUDY    27  19  74 S10       30.31F WCI  17
BERTHOUD PASS  CLOUDY    18  10  73 NW15      30.31F HAZE    WCI   3
COTTONWOOD PAS MOCLDY    28  23  80 CALM      30.31S
GUNNISON       CLOUDY    25  19  80 CALM      30.31F
KREMMLING      CLOUDY    23  21  93 CALM      30.31S
LEADVILLE      CLOUDY    18  15  88 NE3       30.29F
MONARCH PASS   CLOUDY    23  21  93 S9        30.41F WCI  13
SALIDA         MOCLDY    30  26  87 W5        30.38F WCI  25
SUNLIGHT       CLOUDY    28  27  93 CALM      30.31F
WILKERSON PASS LGT SNOW  21  19  93 W8        30.32F VSB 3/4 WCI  12
$$

COZ069>075-301200-
...SAN LUIS VALLEY/SANGRE DE CRISTO MOUNTAINS...

CITY           SKY/WX    TMP DP  RH WIND       PRES   REMARKS
ALAMOSA        LGT SNOW  29  27  92 S7        30.31F FOG     WCI  22
LA VETA PASS   CLOUDY    23  21  93 S6        30.30F FOG     WCI  16
SAGUACHE       LGT SNOW  32  30  93 SE8       30.32F WCI  25
$$

COZ035-036-038>040-301200-
...NORTHERN COLORADO FRONT RANGE...

CITY           SKY/WX    TMP DP  RH WIND       PRES   REMARKS
DENVER INTL AP CLOUDY    33  25  72 NW7       30.21F WCI  27
DMNS CITY PARK   N/A     33  25  71 NW1       30.21F
AURORA         CLOUDY    33  24  67 W5        30.22F WCI  29
FRONT RANGE AP NOT AVBL
ERIE MUNI ARPT CLOUDY    29  27  92 CALM      30.23F
BOULDER MUN AP CLOUDY    34  25  69 CALM      30.22F
CENTENNIAL     CLOUDY    34  24  67 NW3       30.21F
BROOMFIELD     CLOUDY    34  23  64 N7        30.22F WCI  28
FORT COLLINS   CLOUDY    28  21  74 N5        30.24F WCI  23
LONGMONT       CLOUDY    30  26  84 W5        30.25F WCI  25
$$

COZ041-046-047-076>085-087-088-301200-
...PIKES PEAK/PALMER DIVIDE AND SOUTHERN FOOTHILLS...

CITY           SKY/WX    TMP DP  RH WIND       PRES   REMARKS
COLO. SPRINGS  CLOUDY    31  24  75 E6        30.27F WCI  25
A. F. ACADEMY  CLOUDY    30  23  75 CALM      30.26F
ELLICOTT       CLOUDY   N/A N/A N/A SE10      30.26F
FALCON         CLOUDY    28  23  79 SE5       30.27F WCI  23
FORT CARSON    CLOUDY    30  23  75 CALM      30.26F
LIMON          CLOUDY    30  22  72 SE12      30.27F WCI  20
MONUMENT HILL  CLOUDY    32  23  69 S16       30.22F WCI  21
TRINIDAD       CLOUDY    39  26  59 SW10      30.29F
$$

COZ042>045-048>051-090-091-301200-
...NORTHEAST COLORADO...

CITY           SKY/WX    TMP DP  RH WIND       PRES   REMARKS
GREELEY ARPT   CLOUDY    27  19  74 N5        30.22F WCI  21
AKRON          MOCLDY    32  21  64 S12       30.26F WCI  23
BURLINGTON     MOCLDY    30  22  72 S14       30.33F WCI  19
WRAY           MOCLDY    32  24  73 SE7       30.33F WCI  25
STERLING       MOCLDY    32  23  69 S3        30.27F
HOLYOKE        NOT AVBL
FORT MORGAN    MOCLDY    29  23  79 E6        30.25F WCI  22
$$

COZ086-089-092>099-301200-
...SOUTHEAST COLORADO...

CITY           SKY/WX    TMP DP  RH WIND       PRES   REMARKS
PUEBLO         MOCLDY    29  23  78 CALM      30.28F
LA JUNTA       CLOUDY    39  27  62 S8        30.30F
LAMAR          CLOUDY    40  28  62 S8        30.33F
SPRINGFIELD      N/A     34  28  79 S9        30.36F WCI  27
$$


USA.gov is the U.S. government's official web portal to all federal, state and local government web resources and services.